Year,Month,Day,Hour,Minute,Value (Times are PST for temperature in C)
2015,04,09,00,00,4.30
2015,04,09,00,01,4.30
2015,04,09,00,02,4.30
2015,04,09,00,03,4.20
2015,04,09,00,04,4.20
2015,04,09,00,05,4.20
2015,04,09,00,06,4.20
2015,04,09,00,07,4.10
2015,04,09,00,08,4.10
2015,04,09,00,09,4.10
2015,04,09,00,10,4.10
2015,04,09,00,11,4.10
2015,04,09,00,12,4.10
2015,04,09,00,13,4.10
2015,04,09,00,14,4.20
2015,04,09,00,15,4.20
2015,04,09,00,16,4.20
2015,04,09,00,17,4.20
2015,04,09,00,18,4.20
2015,04,09,00,19,4.20
2015,04,09,00,20,4.20
2015,04,09,00,21,4.20
2015,04,09,00,22,4.20
2015,04,09,00,23,4.20
2015,04,09,00,24,4.10
2015,04,09,00,25,4.10
2015,04,09,00,26,4.00
2015,04,09,00,27,4.00
2015,04,09,00,28,4.00
2015,04,09,00,29,4.00
2015,04,09,00,30,3.90
2015,04,09,00,31,3.90
2015,04,09,00,32,3.90
2015,04,09,00,33,3.80
2015,04,09,00,34,3.80
2015,04,09,00,35,3.80
2015,04,09,00,36,3.80
2015,04,09,00,37,3.70
2015,04,09,00,38,3.70
2015,04,09,00,39,3.70
2015,04,09,00,40,3.70
2015,04,09,00,41,3.60
2015,04,09,00,42,3.60
2015,04,09,00,43,3.60
2015,04,09,00,44,3.60
2015,04,09,00,45,3.60
2015,04,09,00,46,3.60
2015,04,09,00,47,3.50
2015,04,09,00,48,3.50
2015,04,09,00,49,3.50
2015,04,09,00,50,3.50
2015,04,09,00,51,3.50
2015,04,09,00,52,3.40
2015,04,09,00,53,3.40
2015,04,09,00,54,3.40
2015,04,09,00,55,3.40
2015,04,09,00,56,3.40
2015,04,09,00,57,3.30
2015,04,09,00,58,3.30
2015,04,09,00,59,3.30
2015,04,09,01,00,3.30
2015,04,09,01,01,3.30
2015,04,09,01,02,3.20
2015,04,09,01,03,3.20
2015,04,09,01,04,3.20
2015,04,09,01,05,3.20
2015,04,09,01,06,3.20
2015,04,09,01,07,3.20
2015,04,09,01,08,3.20
2015,04,09,01,09,3.20
2015,04,09,01,10,3.20
2015,04,09,01,11,3.20
2015,04,09,01,12,3.20
2015,04,09,01,13,3.20
2015,04,09,01,14,3.20
2015,04,09,01,15,3.20
2015,04,09,01,16,3.10
2015,04,09,01,17,3.10
2015,04,09,01,18,3.10
2015,04,09,01,19,3.10
2015,04,09,01,20,3.10
2015,04,09,01,21,3.00
2015,04,09,01,22,3.00
2015,04,09,01,23,3.00
2015,04,09,01,24,3.00
2015,04,09,01,25,3.00
2015,04,09,01,26,3.00
2015,04,09,01,27,3.10
2015,04,09,01,28,3.10
2015,04,09,01,29,3.10
2015,04,09,01,30,3.00
2015,04,09,01,31,3.00
2015,04,09,01,32,3.00
2015,04,09,01,33,3.00
2015,04,09,01,34,3.00
2015,04,09,01,35,3.00
2015,04,09,01,36,3.00
2015,04,09,01,37,3.00
2015,04,09,01,38,2.90
2015,04,09,01,39,2.90
2015,04,09,01,40,2.90
2015,04,09,01,41,2.90
2015,04,09,01,42,2.90
2015,04,09,01,43,2.90
2015,04,09,01,44,2.90
2015,04,09,01,45,2.90
2015,04,09,01,46,2.90
2015,04,09,01,47,2.90
2015,04,09,01,48,2.90
2015,04,09,01,49,2.90
2015,04,09,01,50,2.90
2015,04,09,01,51,2.90
2015,04,09,01,52,3.00
2015,04,09,01,53,3.00
2015,04,09,01,54,3.00
2015,04,09,01,55,3.00
2015,04,09,01,56,3.00
2015,04,09,01,57,3.00
2015,04,09,01,58,3.00
2015,04,09,01,59,3.00
2015,04,09,02,00,3.00
2015,04,09,02,01,3.00
2015,04,09,02,02,3.00
2015,04,09,02,03,2.90
2015,04,09,02,04,2.90
2015,04,09,02,05,2.90
2015,04,09,02,06,2.90
2015,04,09,02,07,2.90
2015,04,09,02,08,2.90
2015,04,09,02,09,3.00
2015,04,09,02,10,3.00
2015,04,09,02,11,3.00
2015,04,09,02,12,2.90
2015,04,09,02,13,2.90
2015,04,09,02,14,2.90
2015,04,09,02,15,2.90
2015,04,09,02,16,2.90
2015,04,09,02,17,2.90
2015,04,09,02,18,2.90
2015,04,09,02,19,2.90
2015,04,09,02,20,2.90
2015,04,09,02,21,3.00
2015,04,09,02,22,3.00
2015,04,09,02,23,3.00
2015,04,09,02,24,2.90
2015,04,09,02,25,2.90
2015,04,09,02,26,3.00
2015,04,09,02,27,2.90
2015,04,09,02,28,2.90
2015,04,09,02,29,2.90
2015,04,09,02,30,2.90
2015,04,09,02,31,2.90
2015,04,09,02,32,2.90
2015,04,09,02,33,2.90
2015,04,09,02,34,2.80
2015,04,09,02,35,2.80
2015,04,09,02,36,2.80
2015,04,09,02,37,2.80
2015,04,09,02,38,2.80
2015,04,09,02,39,2.80
2015,04,09,02,40,2.80
2015,04,09,02,41,2.80
2015,04,09,02,42,2.80
2015,04,09,02,43,2.70
2015,04,09,02,44,2.70
2015,04,09,02,45,2.70
2015,04,09,02,46,2.70
2015,04,09,02,47,2.70
2015,04,09,02,48,2.70
2015,04,09,02,49,2.70
2015,04,09,02,50,2.70
2015,04,09,02,51,2.70
2015,04,09,02,52,2.70
2015,04,09,02,53,2.70
2015,04,09,02,54,2.70
2015,04,09,02,55,2.70
2015,04,09,02,56,2.70
2015,04,09,02,57,2.70
2015,04,09,02,58,2.70
2015,04,09,02,59,2.70
2015,04,09,03,00,2.70
2015,04,09,03,01,2.70
2015,04,09,03,02,2.70
2015,04,09,03,03,2.70
2015,04,09,03,04,2.70
2015,04,09,03,05,2.70
2015,04,09,03,06,2.70
2015,04,09,03,07,2.70
2015,04,09,03,08,2.60
2015,04,09,03,09,2.60
2015,04,09,03,10,2.60
2015,04,09,03,11,2.60
2015,04,09,03,12,2.60
2015,04,09,03,13,2.60
2015,04,09,03,14,2.50
2015,04,09,03,15,2.50
2015,04,09,03,16,2.50
2015,04,09,03,17,2.50
2015,04,09,03,18,2.50
2015,04,09,03,19,2.40
2015,04,09,03,20,2.40
2015,04,09,03,21,2.40
2015,04,09,03,22,2.40
2015,04,09,03,23,2.40
2015,04,09,03,24,2.40
2015,04,09,03,25,2.30
2015,04,09,03,26,2.30
2015,04,09,03,27,2.30
2015,04,09,03,28,2.30
2015,04,09,03,29,2.30
2015,04,09,03,30,2.30
2015,04,09,03,31,2.20
2015,04,09,03,32,2.20
2015,04,09,03,33,2.20
2015,04,09,03,34,2.20
2015,04,09,03,35,2.20
2015,04,09,03,36,2.20
2015,04,09,03,37,2.20
2015,04,09,03,38,2.10
2015,04,09,03,39,2.10
2015,04,09,03,40,2.10
2015,04,09,03,41,2.10
2015,04,09,03,42,2.10
2015,04,09,03,43,2.10
2015,04,09,03,44,2.00
2015,04,09,03,45,2.00
2015,04,09,03,46,2.00
2015,04,09,03,47,2.00
2015,04,09,03,48,1.90
2015,04,09,03,49,1.90
2015,04,09,03,50,1.90
2015,04,09,03,51,1.90
2015,04,09,03,52,1.90
2015,04,09,03,53,1.90
2015,04,09,03,54,1.90
2015,04,09,03,55,1.90
2015,04,09,03,56,1.90
2015,04,09,03,57,1.90
2015,04,09,03,58,1.90
2015,04,09,03,59,1.90
2015,04,09,04,00,1.80
2015,04,09,04,01,1.80
2015,04,09,04,02,1.80
2015,04,09,04,03,1.80
2015,04,09,04,04,1.80
2015,04,09,04,05,1.80
2015,04,09,04,06,1.80
2015,04,09,04,07,1.80
2015,04,09,04,08,1.80
2015,04,09,04,09,1.80
2015,04,09,04,10,1.80
2015,04,09,04,11,1.80
2015,04,09,04,12,1.80
2015,04,09,04,13,1.80
2015,04,09,04,14,1.80
2015,04,09,04,15,1.80
2015,04,09,04,16,1.80
2015,04,09,04,17,1.80
2015,04,09,04,18,1.80
2015,04,09,04,19,1.80
2015,04,09,04,20,1.80
2015,04,09,04,21,1.80
2015,04,09,04,22,1.70
2015,04,09,04,23,1.70
2015,04,09,04,24,1.80
2015,04,09,04,25,1.80
2015,04,09,04,26,1.80
2015,04,09,04,27,1.80
2015,04,09,04,28,1.80
2015,04,09,04,29,1.80
2015,04,09,04,30,1.80
2015,04,09,04,31,1.80
2015,04,09,04,32,1.80
2015,04,09,04,33,1.80
2015,04,09,04,34,1.80
2015,04,09,04,35,1.70
2015,04,09,04,36,1.70
2015,04,09,04,37,1.70
2015,04,09,04,38,1.70
2015,04,09,04,39,1.70
2015,04,09,04,40,1.70
2015,04,09,04,41,1.60
2015,04,09,04,42,1.60
2015,04,09,04,43,1.60
2015,04,09,04,44,1.60
2015,04,09,04,45,1.60
2015,04,09,04,46,1.60
2015,04,09,04,47,1.60
2015,04,09,04,48,1.60
2015,04,09,04,49,1.60
2015,04,09,04,50,1.60
2015,04,09,04,51,1.60
2015,04,09,04,52,1.60
2015,04,09,04,53,1.60
2015,04,09,04,54,1.60
2015,04,09,04,55,1.60
2015,04,09,04,56,1.70
2015,04,09,04,57,1.70
2015,04,09,04,58,1.70
2015,04,09,04,59,1.60
2015,04,09,05,00,1.60
2015,04,09,05,01,1.60
2015,04,09,05,02,1.60
2015,04,09,05,03,1.60
2015,04,09,05,04,1.60
2015,04,09,05,05,1.60
2015,04,09,05,06,1.60
2015,04,09,05,07,1.60
2015,04,09,05,08,1.60
2015,04,09,05,09,1.60
2015,04,09,05,10,1.60
2015,04,09,05,11,1.50
2015,04,09,05,12,1.50
2015,04,09,05,13,1.40
2015,04,09,05,14,1.40
2015,04,09,05,15,1.40
2015,04,09,05,16,1.40
2015,04,09,05,17,1.40
2015,04,09,05,18,1.30
2015,04,09,05,19,1.30
2015,04,09,05,20,1.30
2015,04,09,05,21,1.30
2015,04,09,05,22,1.30
2015,04,09,05,23,1.30
2015,04,09,05,24,1.30
2015,04,09,05,25,1.20
2015,04,09,05,26,1.20
2015,04,09,05,27,1.20
2015,04,09,05,28,1.20
2015,04,09,05,29,1.20
2015,04,09,05,30,1.10
2015,04,09,05,31,1.10
2015,04,09,05,32,1.10
2015,04,09,05,33,1.10
2015,04,09,05,34,1.10
2015,04,09,05,35,1.10
2015,04,09,05,36,1.10
2015,04,09,05,37,1.10
2015,04,09,05,38,1.10
2015,04,09,05,39,1.10
2015,04,09,05,40,1.10
2015,04,09,05,41,1.10
2015,04,09,05,42,1.00
2015,04,09,05,43,1.00
2015,04,09,05,44,0.90
2015,04,09,05,45,0.90
2015,04,09,05,46,0.90
2015,04,09,05,47,0.80
2015,04,09,05,48,0.80
2015,04,09,05,49,0.80
2015,04,09,05,50,0.80
2015,04,09,05,51,0.80
2015,04,09,05,52,0.80
2015,04,09,05,53,0.80
2015,04,09,05,54,0.80
2015,04,09,05,55,0.80
2015,04,09,05,56,0.80
2015,04,09,05,57,0.80
2015,04,09,05,58,0.80
2015,04,09,05,59,0.70
2015,04,09,06,00,0.70
2015,04,09,06,01,0.70
2015,04,09,06,02,0.70
2015,04,09,06,03,0.70
2015,04,09,06,04,0.70
2015,04,09,06,05,0.70
2015,04,09,06,06,0.70
2015,04,09,06,07,0.70
2015,04,09,06,08,0.70
2015,04,09,06,09,0.70
2015,04,09,06,10,0.70
2015,04,09,06,11,0.80
2015,04,09,06,12,0.80
2015,04,09,06,13,0.80
2015,04,09,06,14,0.80
2015,04,09,06,15,0.80
2015,04,09,06,16,0.80
2015,04,09,06,17,0.80
2015,04,09,06,18,0.80
2015,04,09,06,19,0.80
2015,04,09,06,20,0.80
2015,04,09,06,21,0.80
2015,04,09,06,22,0.90
2015,04,09,06,23,0.90
2015,04,09,06,24,0.90
2015,04,09,06,25,0.90
2015,04,09,06,26,0.90
2015,04,09,06,27,0.90
2015,04,09,06,28,0.90
2015,04,09,06,29,0.90
2015,04,09,06,30,0.90
2015,04,09,06,31,0.90
2015,04,09,06,32,0.90
2015,04,09,06,33,0.90
2015,04,09,06,34,1.00
2015,04,09,06,35,1.00
2015,04,09,06,36,1.00
2015,04,09,06,37,1.10
2015,04,09,06,38,1.10
2015,04,09,06,39,1.10
2015,04,09,06,40,1.10
2015,04,09,06,41,1.20
2015,04,09,06,42,1.20
2015,04,09,06,43,1.20
2015,04,09,06,44,1.20
2015,04,09,06,45,1.20
2015,04,09,06,46,1.20
2015,04,09,06,47,1.20
2015,04,09,06,48,1.20
2015,04,09,06,49,1.20
2015,04,09,06,50,1.10
2015,04,09,06,51,1.10
2015,04,09,06,52,1.10
2015,04,09,06,53,1.10
2015,04,09,06,54,1.00
2015,04,09,06,55,1.00
2015,04,09,06,56,1.00
2015,04,09,06,57,1.00
2015,04,09,06,58,1.10
2015,04,09,06,59,1.10
2015,04,09,07,00,1.10
2015,04,09,07,01,1.10
2015,04,09,07,02,1.00
2015,04,09,07,03,1.00
2015,04,09,07,04,1.10
2015,04,09,07,05,1.10
2015,04,09,07,06,1.00
2015,04,09,07,07,1.00
2015,04,09,07,08,1.00
2015,04,09,07,09,1.00
2015,04,09,07,10,1.00
2015,04,09,07,11,0.90
2015,04,09,07,12,0.90
2015,04,09,07,13,0.90
2015,04,09,07,14,0.90
2015,04,09,07,15,0.90
2015,04,09,07,16,0.90
2015,04,09,07,17,0.90
2015,04,09,07,18,0.90
2015,04,09,07,19,0.90
2015,04,09,07,20,0.90
2015,04,09,07,21,0.90
2015,04,09,07,22,0.90
2015,04,09,07,23,0.80
2015,04,09,07,24,0.80
2015,04,09,07,25,0.80
2015,04,09,07,26,0.80
2015,04,09,07,27,0.80
2015,04,09,07,28,0.80
2015,04,09,07,29,0.80
2015,04,09,07,30,0.80
2015,04,09,07,31,0.80
2015,04,09,07,32,0.80
2015,04,09,07,33,0.70
2015,04,09,07,34,0.70
2015,04,09,07,35,0.70
2015,04,09,07,36,0.70
2015,04,09,07,37,0.70
2015,04,09,07,38,0.70
2015,04,09,07,39,0.70
2015,04,09,07,40,0.70
2015,04,09,07,41,0.70
2015,04,09,07,42,0.70
2015,04,09,07,43,0.70
2015,04,09,07,44,0.70
2015,04,09,07,45,0.70
2015,04,09,07,46,0.70
2015,04,09,07,47,0.70
2015,04,09,07,48,0.70
2015,04,09,07,49,0.70
2015,04,09,07,50,0.70
2015,04,09,07,51,0.70
2015,04,09,07,52,0.70
2015,04,09,07,53,0.70
2015,04,09,07,54,0.70
2015,04,09,07,55,0.70
2015,04,09,07,56,0.70
2015,04,09,07,57,0.70
2015,04,09,07,58,0.70
2015,04,09,07,59,0.70
2015,04,09,08,00,0.70
2015,04,09,08,01,0.60
2015,04,09,08,02,0.60
2015,04,09,08,03,0.60
2015,04,09,08,04,0.60
2015,04,09,08,05,0.60
2015,04,09,08,06,0.60
2015,04,09,08,07,0.60
2015,04,09,08,08,0.60
2015,04,09,08,09,0.60
2015,04,09,08,10,0.60
2015,04,09,08,11,0.50
2015,04,09,08,12,0.50
2015,04,09,08,13,0.50
2015,04,09,08,14,0.50
2015,04,09,08,15,0.50
2015,04,09,08,16,0.60
2015,04,09,08,17,0.60
2015,04,09,08,18,0.60
2015,04,09,08,19,0.60
2015,04,09,08,20,0.70
2015,04,09,08,21,0.70
2015,04,09,08,22,0.70
2015,04,09,08,23,0.70
2015,04,09,08,24,0.70
2015,04,09,08,25,0.70
2015,04,09,08,26,0.70
2015,04,09,08,27,0.70
2015,04,09,08,28,0.80
2015,04,09,08,29,0.80
2015,04,09,08,30,0.80
2015,04,09,08,31,0.90
2015,04,09,08,32,0.90
2015,04,09,08,33,0.90
2015,04,09,08,34,0.90
2015,04,09,08,35,0.90
2015,04,09,08,36,0.90
2015,04,09,08,37,0.90
2015,04,09,08,38,0.90
2015,04,09,08,39,0.90
2015,04,09,08,40,0.90
2015,04,09,08,41,0.90
2015,04,09,08,42,0.90
2015,04,09,08,43,0.90
2015,04,09,08,44,0.90
2015,04,09,08,45,0.90
2015,04,09,08,46,0.90
2015,04,09,08,47,1.00
2015,04,09,08,48,1.00
2015,04,09,08,49,1.00
2015,04,09,08,50,1.00
2015,04,09,08,51,1.00
2015,04,09,08,52,1.00
2015,04,09,08,53,1.00
2015,04,09,08,54,1.00
2015,04,09,08,55,1.00
2015,04,09,08,56,1.00
2015,04,09,08,57,1.10
2015,04,09,08,58,1.10
2015,04,09,08,59,1.10
2015,04,09,09,00,1.10
2015,04,09,09,01,1.10
2015,04,09,09,02,1.10
2015,04,09,09,03,1.10
2015,04,09,09,04,1.10
2015,04,09,09,05,1.10
2015,04,09,09,06,1.10
2015,04,09,09,07,1.10
2015,04,09,09,08,1.10
2015,04,09,09,09,1.10
2015,04,09,09,10,1.10
2015,04,09,09,11,1.10
2015,04,09,09,12,1.10
2015,04,09,09,13,1.10
2015,04,09,09,14,1.10
2015,04,09,09,15,1.10
2015,04,09,09,16,1.10
2015,04,09,09,17,1.10
2015,04,09,09,18,1.10
2015,04,09,09,19,1.10
2015,04,09,09,20,1.10
2015,04,09,09,21,1.10
2015,04,09,09,22,1.10
2015,04,09,09,23,1.10
2015,04,09,09,24,1.10
2015,04,09,09,25,1.10
2015,04,09,09,26,1.10
2015,04,09,09,27,1.10
2015,04,09,09,28,1.20
2015,04,09,09,29,1.20
2015,04,09,09,30,1.20
2015,04,09,09,31,1.20
2015,04,09,09,32,1.20
2015,04,09,09,33,1.30
2015,04,09,09,34,1.30
2015,04,09,09,35,1.30
2015,04,09,09,36,1.30
2015,04,09,09,37,1.30
2015,04,09,09,38,1.30
2015,04,09,09,39,1.30
2015,04,09,09,40,1.30
2015,04,09,09,41,1.30
2015,04,09,09,42,1.40
2015,04,09,09,43,1.40
2015,04,09,09,44,1.40
2015,04,09,09,45,1.40
2015,04,09,09,46,1.50
2015,04,09,09,47,1.50
2015,04,09,09,48,1.60
2015,04,09,09,49,1.60
2015,04,09,09,50,1.70
2015,04,09,09,51,1.70
2015,04,09,09,52,1.80
2015,04,09,09,53,1.90
2015,04,09,09,54,1.90
2015,04,09,09,55,2.00
2015,04,09,09,56,2.00
2015,04,09,09,57,2.00
2015,04,09,09,58,2.10
2015,04,09,09,59,2.10
2015,04,09,10,00,2.10
2015,04,09,10,01,2.20
2015,04,09,10,02,2.20
2015,04,09,10,03,2.20
2015,04,09,10,04,2.30
2015,04,09,10,05,2.30
2015,04,09,10,06,2.30
2015,04,09,10,07,2.40
2015,04,09,10,08,2.40
2015,04,09,10,09,2.50
2015,04,09,10,10,2.60
2015,04,09,10,11,2.70
2015,04,09,10,12,2.80
2015,04,09,10,13,2.90
2015,04,09,10,14,3.00
2015,04,09,10,15,3.10
2015,04,09,10,16,3.20
2015,04,09,10,17,3.30
2015,04,09,10,18,3.40
2015,04,09,10,19,3.50
2015,04,09,10,20,3.70
2015,04,09,10,21,3.80
2015,04,09,10,22,3.80
2015,04,09,10,23,3.90
2015,04,09,10,24,4.00
2015,04,09,10,25,4.10
2015,04,09,10,26,4.20
2015,04,09,10,27,4.30
2015,04,09,10,28,4.40
2015,04,09,10,29,4.50
2015,04,09,10,30,4.60
2015,04,09,10,31,4.70
2015,04,09,10,32,4.80
2015,04,09,10,33,4.80
2015,04,09,10,34,4.90
2015,04,09,10,35,5.00
2015,04,09,10,36,5.10
2015,04,09,10,37,5.20
2015,04,09,10,38,5.30
2015,04,09,10,39,5.40
2015,04,09,10,40,5.50
2015,04,09,10,41,5.70
2015,04,09,10,42,5.80
2015,04,09,10,43,5.80
2015,04,09,10,44,5.90
2015,04,09,10,45,6.00
2015,04,09,10,46,6.00
2015,04,09,10,47,6.10
2015,04,09,10,48,6.20
2015,04,09,10,49,6.20
2015,04,09,10,50,6.40
2015,04,09,10,51,6.50
2015,04,09,10,52,6.60
2015,04,09,10,53,6.70
2015,04,09,10,54,6.80
2015,04,09,10,55,6.80
2015,04,09,10,56,6.90
2015,04,09,10,57,7.00
2015,04,09,10,58,7.10
2015,04,09,10,59,7.20
2015,04,09,11,00,7.30
2015,04,09,11,01,7.30
2015,04,09,11,02,7.40
2015,04,09,11,03,7.50
2015,04,09,11,04,7.60
2015,04,09,11,05,7.70
2015,04,09,11,06,7.80
2015,04,09,11,07,7.80
2015,04,09,11,08,7.90
2015,04,09,11,09,7.90
2015,04,09,11,10,8.00
2015,04,09,11,11,8.10
2015,04,09,11,12,8.10
2015,04,09,11,13,8.20
2015,04,09,11,14,8.30
2015,04,09,11,15,8.40
2015,04,09,11,16,8.40
2015,04,09,11,17,8.50
2015,04,09,11,18,8.50
2015,04,09,11,19,8.60
2015,04,09,11,20,8.70
2015,04,09,11,21,8.80
2015,04,09,11,22,8.90
2015,04,09,11,23,8.90
2015,04,09,11,24,9.00
2015,04,09,11,25,9.10
2015,04,09,11,26,9.10
2015,04,09,11,27,9.20
2015,04,09,11,28,9.30
2015,04,09,11,29,9.30
2015,04,09,11,30,9.40
2015,04,09,11,31,9.50
2015,04,09,11,32,9.60
2015,04,09,11,33,9.70
2015,04,09,11,34,9.80
2015,04,09,11,35,9.80
2015,04,09,11,36,9.90
2015,04,09,11,37,10.00
2015,04,09,11,38,10.00
2015,04,09,11,39,10.10
2015,04,09,11,40,10.20
2015,04,09,11,41,10.20
2015,04,09,11,42,10.30
2015,04,09,11,43,10.30
2015,04,09,11,44,10.40
2015,04,09,11,45,10.50
2015,04,09,11,46,10.50
2015,04,09,11,47,10.60
2015,04,09,11,48,10.70
2015,04,09,11,49,10.80
2015,04,09,11,50,10.90
2015,04,09,11,51,10.90
2015,04,09,11,52,11.00
2015,04,09,11,53,11.10
2015,04,09,11,54,11.10
2015,04,09,11,55,11.10
2015,04,09,11,56,11.20
2015,04,09,11,57,11.20
2015,04,09,11,58,11.30
2015,04,09,11,59,11.40
2015,04,09,12,00,11.40
2015,04,09,12,01,11.50
2015,04,09,12,02,11.60
2015,04,09,12,03,11.70
2015,04,09,12,04,11.70
2015,04,09,12,05,11.80
2015,04,09,12,06,11.90
2015,04,09,12,07,11.90
2015,04,09,12,08,12.00
2015,04,09,12,09,12.10
2015,04,09,12,10,12.10
2015,04,09,12,11,12.10
2015,04,09,12,12,12.10
2015,04,09,12,13,12.00
2015,04,09,12,14,12.00
2015,04,09,12,15,11.90
2015,04,09,12,16,11.90
2015,04,09,12,17,11.90
2015,04,09,12,18,11.90
2015,04,09,12,19,11.90
2015,04,09,12,20,11.90
2015,04,09,12,21,11.90
2015,04,09,12,22,11.90
2015,04,09,12,23,11.90
2015,04,09,12,24,11.90
2015,04,09,12,25,11.90
2015,04,09,12,26,12.00
2015,04,09,12,27,12.00
2015,04,09,12,28,12.10
2015,04,09,12,29,12.10
2015,04,09,12,30,12.20
2015,04,09,12,31,12.20
2015,04,09,12,32,12.20
2015,04,09,12,33,12.30
2015,04,09,12,34,12.30
2015,04,09,12,35,12.40
2015,04,09,12,36,12.50
2015,04,09,12,37,12.60
2015,04,09,12,38,12.70
2015,04,09,12,39,12.80
2015,04,09,12,40,12.90
2015,04,09,12,41,13.00
2015,04,09,12,42,13.10
2015,04,09,12,43,13.20
2015,04,09,12,44,13.20
2015,04,09,12,45,13.30
2015,04,09,12,46,13.30
2015,04,09,12,47,13.40
2015,04,09,12,48,13.50
2015,04,09,12,49,13.60
2015,04,09,12,50,13.70
2015,04,09,12,51,13.80
2015,04,09,12,52,13.90
2015,04,09,12,53,13.90
2015,04,09,12,54,14.00
2015,04,09,12,55,14.10
2015,04,09,12,56,14.10
2015,04,09,12,57,14.10
2015,04,09,12,58,14.00
2015,04,09,12,59,14.00
2015,04,09,13,00,14.00
2015,04,09,13,01,13.90
2015,04,09,13,02,14.00
2015,04,09,13,03,14.00
2015,04,09,13,04,14.00
2015,04,09,13,05,14.00
2015,04,09,13,06,14.00
2015,04,09,13,07,14.00
2015,04,09,13,08,13.90
2015,04,09,13,09,14.00
2015,04,09,13,10,14.00
2015,04,09,13,11,14.10
2015,04,09,13,12,14.10
2015,04,09,13,13,14.20
2015,04,09,13,14,14.20
2015,04,09,13,15,14.20
2015,04,09,13,16,14.30
2015,04,09,13,17,14.30
2015,04,09,13,18,14.30
2015,04,09,13,19,14.40
2015,04,09,13,20,14.40
2015,04,09,13,21,14.40
2015,04,09,13,22,14.40
2015,04,09,13,23,14.40
2015,04,09,13,24,14.40
2015,04,09,13,25,14.40
2015,04,09,13,26,14.40
2015,04,09,13,27,14.40
2015,04,09,13,28,14.40
2015,04,09,13,29,14.40
2015,04,09,13,30,14.50
2015,04,09,13,31,14.50
2015,04,09,13,32,14.50
2015,04,09,13,33,14.60
2015,04,09,13,34,14.60
2015,04,09,13,35,14.70
2015,04,09,13,36,14.70
2015,04,09,13,37,14.70
2015,04,09,13,38,14.80
2015,04,09,13,39,14.80
2015,04,09,13,40,14.80
2015,04,09,13,41,14.80
2015,04,09,13,42,14.90
2015,04,09,13,43,14.90
2015,04,09,13,44,14.90
2015,04,09,13,45,14.90
2015,04,09,13,46,15.00
2015,04,09,13,47,15.00
2015,04,09,13,48,15.00
2015,04,09,13,49,15.00
2015,04,09,13,50,15.00
2015,04,09,13,51,15.10
2015,04,09,13,52,15.20
2015,04,09,13,53,15.30
2015,04,09,13,54,15.40
2015,04,09,13,55,15.50
2015,04,09,13,56,15.60
2015,04,09,13,57,15.60
2015,04,09,13,58,15.60
2015,04,09,13,59,15.60
2015,04,09,14,00,15.60
2015,04,09,14,01,15.60
2015,04,09,14,02,15.60
2015,04,09,14,03,15.70
2015,04,09,14,04,15.70
2015,04,09,14,05,15.70
2015,04,09,14,06,15.60
2015,04,09,14,07,15.50
2015,04,09,14,08,15.50
2015,04,09,14,09,15.40
2015,04,09,14,10,15.40
2015,04,09,14,11,15.50
2015,04,09,14,12,15.40
2015,04,09,14,13,15.40
2015,04,09,14,14,15.40
2015,04,09,14,15,15.40
2015,04,09,14,16,15.40
2015,04,09,14,17,15.40
2015,04,09,14,18,15.40
2015,04,09,14,19,15.40
2015,04,09,14,20,15.50
2015,04,09,14,21,15.50
2015,04,09,14,22,15.50
2015,04,09,14,23,15.40
2015,04,09,14,24,15.40
2015,04,09,14,25,15.40
2015,04,09,14,26,15.40
2015,04,09,14,27,15.40
2015,04,09,14,28,15.40
2015,04,09,14,29,15.30
2015,04,09,14,30,15.30
2015,04,09,14,31,15.20
2015,04,09,14,32,15.20
2015,04,09,14,33,15.20
2015,04,09,14,34,15.20
2015,04,09,14,35,15.30
2015,04,09,14,36,15.20
2015,04,09,14,37,15.20
2015,04,09,14,38,15.20
2015,04,09,14,39,15.20
2015,04,09,14,40,15.20
2015,04,09,14,41,15.20
2015,04,09,14,42,15.20
2015,04,09,14,43,15.20
2015,04,09,14,44,15.20
2015,04,09,14,45,15.20
2015,04,09,14,46,15.20
2015,04,09,14,47,15.20
2015,04,09,14,48,15.20
2015,04,09,14,49,15.20
2015,04,09,14,50,15.20
2015,04,09,14,51,15.20
2015,04,09,14,52,15.10
2015,04,09,14,53,15.10
2015,04,09,14,54,15.10
2015,04,09,14,55,15.10
2015,04,09,14,56,15.00
2015,04,09,14,57,15.00
2015,04,09,14,58,15.00
2015,04,09,14,59,15.00
2015,04,09,15,00,15.00
2015,04,09,15,01,15.00
2015,04,09,15,02,15.00
2015,04,09,15,03,14.90
2015,04,09,15,04,14.90
2015,04,09,15,05,14.90
2015,04,09,15,06,14.90
2015,04,09,15,07,14.90
2015,04,09,15,08,14.90
2015,04,09,15,09,14.90
2015,04,09,15,10,14.90
2015,04,09,15,11,14.90
2015,04,09,15,12,14.80
2015,04,09,15,13,14.90
2015,04,09,15,14,14.90
2015,04,09,15,15,14.90
2015,04,09,15,16,14.90
2015,04,09,15,17,14.90
2015,04,09,15,18,14.90
2015,04,09,15,19,14.90
2015,04,09,15,20,14.90
2015,04,09,15,21,14.90
2015,04,09,15,22,14.90
2015,04,09,15,23,14.90
2015,04,09,15,24,14.80
2015,04,09,15,25,14.80
2015,04,09,15,26,14.80
2015,04,09,15,27,14.80
2015,04,09,15,28,14.90
2015,04,09,15,29,14.90
2015,04,09,15,30,14.90
2015,04,09,15,31,14.90
2015,04,09,15,32,14.90
2015,04,09,15,33,15.00
2015,04,09,15,34,15.00
2015,04,09,15,35,15.10
2015,04,09,15,36,15.10
2015,04,09,15,37,15.10
2015,04,09,15,38,15.10
2015,04,09,15,39,15.00
2015,04,09,15,40,15.00
2015,04,09,15,41,15.10
2015,04,09,15,42,15.10
2015,04,09,15,43,15.10
2015,04,09,15,44,15.10
2015,04,09,15,45,15.10
2015,04,09,15,46,15.20
2015,04,09,15,47,15.20
2015,04,09,15,48,15.20
2015,04,09,15,49,15.20
2015,04,09,15,50,15.20
2015,04,09,15,51,15.20
2015,04,09,15,52,15.20
2015,04,09,15,53,15.20
2015,04,09,15,54,15.10
2015,04,09,15,55,15.10
2015,04,09,15,56,15.10
2015,04,09,15,57,15.10
2015,04,09,15,58,15.10
2015,04,09,15,59,15.10
2015,04,09,16,00,15.20
2015,04,09,16,01,15.20
2015,04,09,16,02,15.20
2015,04,09,16,03,15.20
2015,04,09,16,04,15.20
2015,04,09,16,05,15.20
2015,04,09,16,06,15.10
2015,04,09,16,07,15.10
2015,04,09,16,08,15.10
2015,04,09,16,09,15.10
2015,04,09,16,10,15.10
2015,04,09,16,11,15.20
2015,04,09,16,12,15.20
2015,04,09,16,13,15.20
2015,04,09,16,14,15.20
2015,04,09,16,15,15.20
2015,04,09,16,16,15.20
2015,04,09,16,17,15.20
2015,04,09,16,18,15.20
2015,04,09,16,19,15.20
2015,04,09,16,20,15.30
2015,04,09,16,21,15.30
2015,04,09,16,22,15.30
2015,04,09,16,23,15.30
2015,04,09,16,24,15.30
2015,04,09,16,25,15.30
2015,04,09,16,26,15.30
2015,04,09,16,27,15.30
2015,04,09,16,28,15.30
2015,04,09,16,29,15.30
2015,04,09,16,30,15.30
2015,04,09,16,31,15.30
2015,04,09,16,32,15.30
2015,04,09,16,33,15.30
2015,04,09,16,34,15.30
2015,04,09,16,35,15.30
2015,04,09,16,36,15.30
2015,04,09,16,37,15.30
2015,04,09,16,38,15.30
2015,04,09,16,39,15.20
2015,04,09,16,40,15.20
2015,04,09,16,41,15.10
2015,04,09,16,42,15.00
2015,04,09,16,43,15.00
2015,04,09,16,44,14.90
2015,04,09,16,45,14.90
2015,04,09,16,46,14.80
2015,04,09,16,47,14.80
2015,04,09,16,48,14.80
2015,04,09,16,49,14.80
2015,04,09,16,50,14.80
2015,04,09,16,51,14.80
2015,04,09,16,52,14.80
2015,04,09,16,53,14.80
2015,04,09,16,54,14.80
2015,04,09,16,55,14.80
2015,04,09,16,56,14.70
2015,04,09,16,57,14.70
2015,04,09,16,58,14.70
2015,04,09,16,59,14.70
2015,04,09,17,00,14.80
2015,04,09,17,01,14.80
2015,04,09,17,02,14.80
2015,04,09,17,03,14.80
2015,04,09,17,04,14.80
2015,04,09,17,05,14.80
2015,04,09,17,06,14.80
2015,04,09,17,07,14.80
2015,04,09,17,08,14.80
2015,04,09,17,09,14.80
2015,04,09,17,10,14.80
2015,04,09,17,11,14.70
2015,04,09,17,12,14.80
2015,04,09,17,13,14.80
2015,04,09,17,14,14.80
2015,04,09,17,15,14.80
2015,04,09,17,16,14.80
2015,04,09,17,17,14.80
2015,04,09,17,18,14.70
2015,04,09,17,19,14.70
2015,04,09,17,20,14.70
2015,04,09,17,21,14.70
2015,04,09,17,22,14.70
2015,04,09,17,23,14.70
2015,04,09,17,24,14.70
2015,04,09,17,25,14.70
2015,04,09,17,26,14.80
2015,04,09,17,27,14.80
2015,04,09,17,28,14.70
2015,04,09,17,29,14.70
2015,04,09,17,30,14.70
2015,04,09,17,31,14.60
2015,04,09,17,32,14.60
2015,04,09,17,33,14.60
2015,04,09,17,34,14.60
2015,04,09,17,35,14.50
2015,04,09,17,36,14.50
2015,04,09,17,37,14.60
2015,04,09,17,38,14.60
2015,04,09,17,39,14.50
2015,04,09,17,40,14.50
2015,04,09,17,41,14.40
2015,04,09,17,42,14.40
2015,04,09,17,43,14.40
2015,04,09,17,44,14.30
2015,04,09,17,45,14.30
2015,04,09,17,46,14.30
2015,04,09,17,47,14.30
2015,04,09,17,48,14.30
2015,04,09,17,49,14.30